VA3DLF Weather Reports


Display with metric or nautical units.
time (UTC)temp
F
wind
direction
speed
MPH
gust
MPH
rain 1hr
in
rain 24hr
in
rain mn
in
humidity
%
barometer
mb
20201130072536 34 243 1.0 1.0 0.00 0.00 0.00
20201130072035 34 219 1.0 1.0 0.00 0.00 0.00
20201130071533 34 242 2.0 2.0 0.00 0.00 0.00
20201130071035 34 260 2.0 1.0 0.00 0.00 0.00
20201130070534 34 295 0.0 0.0 0.00 0.00 0.00
20201130070031 35 295 0.0 0.0 0.00 0.00 0.00
20201130065534 35 295 0.0 0.0 0.00 0.00 0.00
20201130065038 35 295 0.0 0.0 0.00 0.00 0.00
20201130064530 35 295 0.0 0.0 0.00 0.00 0.00
20201130064031 36 295 0.0 0.0 0.00 0.00 0.00
20201130063534 37 295 0.0 0.0 0.00 0.00 0.00
20201130063030 37 295 0.0 0.0 0.00 0.00 0.00
20201130062531 37 295 0.0 0.0 0.00 0.00 0.00
20201130061538 38 295 0.0 0.0 0.00 0.00 0.00
20201130061032 37 295 0.0 0.0 0.00 0.00 0.00
20201130060038 38 295 0.0 0.0 0.00 0.00 0.00
20201130055529 37 295 0.0 0.0 0.00 0.00 0.00
20201130055028 36 295 0.0 0.0 0.00 0.00 0.00
20201130054525 37 295 0.0 0.0 0.00 0.00 0.00
20201130054028 36 295 0.0 0.0 0.00 0.00 0.00
20201130053036 37 295 0.0 0.0 0.00 0.00 0.00
20201130052027 37 295 0.0 0.0 0.00 0.00 0.00
20201130051526 37 295 0.0 0.0 0.00 0.00 0.00
20201130050526 38 295 0.0 0.0 0.00 0.00 0.00
20201130045027 38 295 0.0 0.0 0.00 0.00 0.00
20201130044526 37 295 0.0 0.0 0.00 0.00 0.00
20201130043024 37 295 0.0 0.0 0.00 0.10 0.00
20201130041021 38 284 2.0 2.0 0.00 0.10 0.00
20201130040022 37 277 1.0 2.0 0.00 0.10 0.00
20201130035524 38 295 1.0 1.0 0.00 0.10 0.00
20201130035020 37 281 2.0 3.0 0.00 0.10 0.00
20201130034519 37 280 1.0 3.0 0.00 0.10 0.00
20201130034022 37 264 1.0 2.0 0.00 0.10 0.00
20201130033519 37 260 2.0 1.0 0.00 0.10 0.00
20201130033024 37 276 1.0 2.0 0.00 0.10 0.00
20201130032518 37 287 2.0 2.0 0.00 0.10 0.00
20201130031023 37 280 1.0 1.0 0.00 0.10 0.00
20201130025518 39 315 2.0 3.0 0.00 0.10 0.00
20201130025026 39 284 2.0 4.0 0.00 0.10 0.00
20201130024519 39 309 2.0 3.0 0.00 0.10 0.00
20201130024016 40 270 2.0 2.0 0.00 0.10 0.00
20201130023023 40 314 3.0 4.0 0.00 0.10 0.00
20201130022513 40 288 1.0 4.0 0.00 0.10 0.00
20201130022026 40 281 2.0 3.0 0.00 0.10 0.00
20201130021017 40 271 3.0 3.0 0.00 0.10 0.00
20201130020522 40 308 4.0 4.0 0.00 0.10 0.00
20201130015514 40 288 3.0 5.0 0.00 0.10 0.00
20201130015020 38 269 3.0 4.0 0.00 0.10 0.00
20201130014516 38 301 3.0 3.0 0.00 0.10 0.00
20201130013015 36 238 2.0 2.0 0.00 0.10 0.00
20201130012519 37 287 0.0 1.0 0.00 0.10 0.00
20201130011019 37 194 2.0 3.0 0.00 0.10 0.00
20201130010510 37 270 0.0 4.0 0.00 0.10 0.00
20201130010023 36 257 1.0 1.0 0.00 0.10 0.00
20201130005517 35 243 2.0 2.0 0.00 0.10 0.00
20201130004516 37 248 2.0 1.0 0.00 0.10 0.00
20201130003515 37 246 2.0 2.0 0.00 0.10 0.00
20201130003013 37 285 2.0 1.0 0.00 0.10 0.00
20201130002501 38 311 3.0 1.0 0.00 0.10 0.00
20201130001459 38 252 1.0 1.0 0.00 0.10 0.00
20201130000521 39 288 1.0 3.0 0.00 0.10 0.00
20201129235459 39 259 2.0 2.0 0.00 0.10 0.00
20201129233459 40 257 2.0 3.0 0.00 0.10 0.00
20201129232458 39 260 2.0 2.0 0.00 0.10 0.00
20201129223457 42 280 3.0 3.0 0.00 0.10 0.00
20201129222456 41 312 3.0 3.0 0.00 0.10 0.00
20201129221455 41 309 3.0 4.0 0.00 0.10 0.00
20201129220956 42 287 2.0 2.0 0.00 0.10 0.00
20201129215957 42 302 3.0 3.0 0.00 0.10 0.00
20201129215454 42 290 4.0 2.0 0.00 0.10 0.00
20201129214955 42 312 4.0 2.0 0.00 0.10 0.00
20201129214455 43 300 4.0 3.0 0.00 0.10 0.00
20201129213955 43 321 4.0 4.0 0.00 0.10 0.00
20201129213458 43 307 3.0 6.0 0.00 0.10 0.00
20201129211954 44 304 4.0 5.0 0.00 0.10 0.00
20201129211454 44 311 6.0 3.0 0.00 0.10 0.00
20201129210454 45 343 0.0 0.0 0.00 0.10 0.00
20201129205952 45 343 0.0 0.0 0.00 0.10 0.00
20201129205453 45 343 0.0 0.0 0.00 0.10 0.00
20201129204953 46 343 0.0 0.0 0.00 0.10 0.00
20201129204452 46 343 0.0 0.0 0.00 0.10 0.00
20201129203955 46 343 0.0 0.0 0.00 0.10 0.00
20201129202950 47 343 0.0 0.0 0.00 0.10 0.00
20201129201952 47 343 0.0 0.0 0.00 0.10 0.00
20201129200955 47 343 0.0 0.0 0.00 0.10 0.00
20201129195450 46 343 12.0 0.0 0.00 0.10 0.00
20201129194449 47 8 0.0 0.0 0.00 0.10 0.00
20201129193950 47 8 14.0 9.0 0.00 0.10 0.00
20201129192950 47 328 12.0 17.0 0.00 0.10 0.00
20201129191951 48 333 4.0 16.0 0.00 0.10 0.00
20201129190451 48 326 7.0 0.0 0.00 0.10 0.00
20201129185952 48 335 12.0 11.0 0.00 0.10 0.00
20201129184950 48 346 0.0 0.0 0.00 0.10 0.00
20201129183948 49 342 9.0 14.0 0.00 0.10 0.00
20201129182447 48 342 10.0 7.0 0.00 0.10 0.00
20201129181948 49 354 11.0 11.0 0.00 0.10 0.00
20201129180448 48 312 11.0 12.0 0.00 0.10 0.00
20201129175946 49 24 9.0 15.0 0.00 0.10 0.00
20201129174946 48 329 10.0 6.0 0.00 0.10 0.00
20201129174443 48 345 0.0 12.0 0.00 0.10 0.00
20201129172943 46 15 11.0 0.0 0.00 0.10 0.00
20201129171443 47 4 11.0 8.0 0.00 0.10 0.00
20201129164943 46 325 7.0 8.0 0.00 0.10 0.00
20201129163943 46 6 10.0 8.0 0.00 0.10 0.00
20201129162941 45 6 4.0 10.0 0.00 0.10 0.00
20201129161942 45 20 0.0 0.0 0.00 0.10 0.00
20201129154941 45 6 11.0 11.0 0.00 0.10 0.00
20201129153943 45 352 8.0 12.0 0.00 0.10 0.00
20201129152939 46 353 11.0 13.0 0.00 0.10 0.00
20201129145935 44 354 0.0 0.0 0.00 0.10 0.00
20201129145440 44 354 0.0 0.0 0.00 0.10 0.00
20201129144939 45 354 0.0 0.0 0.00 0.10 0.00
20201129143934 45 354 0.0 0.0 0.00 0.10 0.00
20201129142932 44 354 0.0 0.0 0.00 0.10 0.00
20201129142433 44 354 0.0 0.0 0.00 0.10 0.00
20201129141934 44 354 0.0 0.0 0.00 0.10 0.00
20201129135932 42 354 0.0 0.0 0.00 0.10 0.00
20201129135435 41 354 0.0 0.0 0.00 0.10 0.00
20201129134931 41 354 0.0 0.0 0.00 0.10 0.00
20201129134430 41 354 0.0 0.0 0.00 0.10 0.00
20201129133929 40 354 0.0 0.0 0.00 0.10 0.00
20201129132928 39 354 0.0 0.0 0.00 0.10 0.00
20201129132428 38 354 0.0 0.0 0.00 0.10 0.00
20201129131934 38 354 0.0 0.0 0.00 0.10 0.00
20201129130428 36 354 0.0 0.0 0.00 0.10 0.00
20201129125933 36 354 0.0 0.0 0.00 0.10 0.00
20201129125427 36 354 0.0 0.0 0.00 0.10 0.00
20201129124927 35 354 0.0 0.0 0.00 0.10 0.00
20201129124424 35 354 0.0 0.0 0.00 0.10 0.00
20201129123925 35 354 0.0 0.0 0.00 0.10 0.00
20201129123425 35 354 0.0 0.0 0.00 0.10 0.00
20201129122923 35 354 0.0 0.0 0.00 0.10 0.00
20201129121924 35 354 0.0 0.0 0.00 0.10 0.00
20201129121428 35 354 0.0 0.0 0.00 0.10 0.00
20201129120922 35 354 0.0 0.0 0.00 0.10 0.00
20201129120426 35 354 0.0 0.0 0.00 0.10 0.00
20201129115921 35 354 0.0 0.0 0.00 0.10 0.00
20201129114921 35 354 0.0 0.0 0.00 0.10 0.00
20201129114420 35 354 0.0 0.0 0.00 0.10 0.00
20201129113920 35 354 0.0 0.0 0.00 0.10 0.00
20201129113420 35 354 0.0 0.0 0.00 0.10 0.00
20201129111919 35 354 0.0 0.0 0.00 0.10 0.00
20201129110418 36 354 0.0 0.0 0.00 0.10 0.00
20201129105917 36 354 0.0 0.0 0.00 0.10 0.00
20201129105416 36 354 0.0 0.0 0.00 0.10 0.00
20201129104418 36 354 0.0 0.0 0.00 0.10 0.00
20201129103913 36 354 0.0 0.0 0.00 0.10 0.00
20201129102911 36 354 0.0 0.0 0.00 0.10 0.00
20201129101913 36 354 0.0 0.0 0.00 0.10 0.00
20201129101408 36 354 0.0 0.0 0.00 0.10 0.00
20201129100413 36 354 0.0 0.0 0.00 0.10 0.00
20201129095908 36 350 4.0 5.0 0.00 0.10 0.00
20201129095409 36 354 5.0 4.0 0.00 0.10 0.00
20201129094408 36 339 5.0 3.0 0.00 0.10 0.00
20201129093909 36 347 5.0 3.0 0.00 0.10 0.00
20201129092906 36 14 5.0 4.0 0.00 0.10 0.00
20201129092410 36 353 2.0 5.0 0.00 0.10 0.00
20201129091908 36 14 0.0 0.0 0.00 0.10 0.00
20201129091405 36 14 0.0 0.0 0.00 0.10 0.00
20201129090907 37 14 0.0 0.0 0.00 0.10 0.00
20201129090406 37 14 0.0 0.0 0.00 0.10 0.00
20201129085903 37 14 0.0 0.0 0.00 0.10 0.00
20201129084905 37 14 0.0 0.0 0.00 0.10 0.00
20201129084404 37 14 0.0 0.0 0.00 0.10 0.00
20201129083903 37 14 0.0 0.0 0.00 0.10 0.00
20201129083403 37 14 0.0 0.0 0.00 0.10 0.00
20201129082901 37 14 0.0 0.0 0.00 0.10 0.00
20201129082401 37 14 0.0 0.0 0.00 0.10 0.00
20201129081902 37 14 0.0 0.0 0.00 0.10 0.00
20201129081359 37 14 0.0 0.0 0.00 0.10 0.00
20201129080902 37 14 0.0 0.0 0.00 0.10 0.00
20201129075859 37 14 0.0 0.0 0.00 0.10 0.00
20201129075401 37 14 0.0 0.0 0.00 0.10 0.00
20201129074900 37 14 0.0 0.0 0.00 0.10 0.00
20201129074357 37 14 0.0 0.0 0.00 0.10 0.00
20201129073858 36 14 0.0 0.0 0.00 0.10 0.00
20201129073400 36 14 0.0 0.0 0.00 0.10 0.00